Regional Weather Roundup
Issued by NWS

Home | Current Version | Previous Version | Text Only | Print | Product List | Glossary Off
Versions: 1 2 3 4 5 6 7 8 9 10 11 12 13 14 15 16 17 18 19 20 21 22 23 24 25 26 27 28 29 30 31 32 33 34 35 36 37 38 39 40 41 42 43 44 45 46 47 48 49 50

000
ASUS43 KDTX 200410
RWRMI
MICHIGAN HOURLY REGIONAL WEATHER ROUNDUP
NATIONAL WEATHER SERVICE DETROIT/PONTIAC MI
1200 AM EDT SUN APR 20 2014

NOTE: "FAIR" INDICATES FEW OR NO CLOUDS BELOW 12,000 FEET WITH NO
SIGNIFICANT WEATHER AND/OR OBSTRUCTION TO VISIBILITY.

MIZ047>049-052>055-059>063-066>070-074>076-081>083-200500-
SOUTHEAST LOWER MICHIGAN

CITY           SKY/WX    TMP DP  RH WIND       PRES   REMARKS
ADRIAN         CLEAR     40  31  70 E6        30.34S
ALMA           MOCLDY    38  34  86 CALM      30.34S
ANN ARBOR      CLEAR     39  29  67 CALM      30.35S
BAD AXE        CLEAR     34  30  86 S5        30.37F
DETROIT CITY   CLEAR     44  28  53 CALM      30.36S
DETROIT        CLEAR     43  29  57 CALM      30.36S
FLINT          CLEAR     45  31  58 S7        30.36S
GROSSE ILE     CLEAR     41  30  65 CALM      30.34S
HILLSDALE      MOCLDY    40  29  65 CALM      30.33S
HOWELL         PTCLDY    40  30  67 CALM      30.35F

CITY           SKY/WX    TMP DP  RH WIND       PRES   REMARKS
JACKSON        PTCLDY    41  29  62 CALM      30.34S
LAMBERTVILLE   CLEAR     41  32  70 CALM      30.34F
LANSING        PTCLDY    46  30  53 CALM      30.35S
LAPEER         NOT AVBL
MASON          PTCLDY    42  32  68 CALM      30.34F
MONROE         CLEAR     37  32  81 CALM      30.33F
MT. CLEMENS    CLEAR     37  33  85 N5        30.35S
PONTIAC        PTCLDY    44  29  55 CALM      30.36R
PORT HOPE        N/A     33  29  85 S5        30.34F
PORT HURON     CLEAR     32  32 100 CALM      30.38S
TRI CITIES     PTCLDY    40  35  83 E6        30.35S
YPSILANTI      CLEAR     39  30  70 N3        30.35S
$$
MIZ043>046-050>051-056>058-064>065-071>073-077>080-200500-
SOUTHWEST LOWER MICHIGAN

CITY           SKY/WX    TMP DP  RH WIND       PRES   REMARKS
BATTLE CREEK   PTCLDY    47  26  44 SE5       30.34F
BENTON HARBOR  MOCLDY    50  28  42 SE10      30.29F
BIG RAPIDS     MOCLDY    42  33  69 SE5       30.29S
COLDWATER      PTCLDY    43  29  59 E5        30.33F
HOLLAND        MOCLDY    51  31  46 SE12      30.31R
GRAND RAPIDS   MOCLDY    50  29  44 S12       30.32S
KALAMAZOO      PTCLDY    47  28  47 SE6       30.32F
MARSHALL       PTCLDY    42  29  60 SE5       30.32F
MUSKEGON       CLOUDY    54  30  40 SE12      30.28S
$$
MIZ016>042-200500-
NORTHERN LOWER MICHIGAN

CITY           SKY/WX    TMP DP  RH WIND       PRES   REMARKS
ALPENA         PTCLDY    32  25  75 SE7       30.33F
BEAVER ISLAND  CLOUDY    45  27  48 SE5       30.25S
BELLAIRE       MOCLDY    45  29  53 S3        30.27F
CADILLAC       MOCLDY    42  31  66 SE9       30.27F
CHARLEVOIX     MOCLDY    46  30  53 SE8       30.28F
FRANKFORT      MOCLDY    45  33  63 SE6       30.24F
GAYLORD        MOCLDY    38  25  59 S8        30.28F
GRAYLING       MOCLDY    38  25  59 SE5       30.30F
HARBOR SPRINGS MOCLDY    45  27  50 E3        30.27S
HOUGHTON LAKE  MOCLDY    37  26  64 SE6       30.31S
MANISTEE       MOCLDY    48  28  46 SE6       30.26F
OSCODA         PTCLDY    31  26  81 CALM      30.34S
PELLSTON       MOCLDY    41  25  53 SE7       30.28F
TRAVERSE CITY  MOCLDY    47  31  53 S5        30.25F
$$
MIZ007>008-015-200500-
EASTERN UPPER MICHIGAN

CITY           SKY/WX    TMP DP  RH WIND       PRES   REMARKS
KINROSS        CLOUDY    36  27  69 SE15      30.28S
MACKINAC ISLAN CLOUDY    39  26  58 SE10G17   30.28R
NEWBERRY       CLOUDY    35  28  75 E3        30.26S
S. S. MARIE    LGT RAIN  35  23  61 NE5       30.34R
$$
MIZ004>006-011>014-085-200500-
CENTRAL UPPER MICHIGAN

CITY           SKY/WX    TMP DP  RH WIND       PRES   REMARKS
MANISTIQUE     LGT RAIN  36  32  87 E3        30.24S
ESCANABA       CLOUDY    37  30  75 CALM      30.21S
MENOMINEE      CLOUDY    45  34  65 S7        30.18S
SAWYER-GWINN   FLURRIES  38  35  90 S13       30.16F
$$
MIZ001>003-009>011-084-200500-
WESTERN UPPER MICHIGAN

CITY           SKY/WX    TMP DP  RH WIND       PRES   REMARKS
IRON MOUNTAIN  LGT RAIN  41  36  82 SE7       30.14F
HOUGHTON       MOCLDY    38  31  76 E7        30.07F
COPPER HARBOR    N/A     39  31  72 SW18G26   30.06F
IRONWOOD       MOCLDY    48  37  66 S15G22    29.99F
$$

ABBREVIATIONS USED IN REMARKS
   TC - TEMPERATURE IN CELSIUS
  WCI - WIND CHILL INDEX
   HX - HEAT INDEX
  VSB - VISIBILITY




USA.gov is the U.S. government's official web portal to all federal, state and local government web resources and services.